When you browse on this site, cookies collect data to enhance your experience and personalize the content and advertising you see.
Visit our Privacy Policy to learn more. By continuing to use the site, you agree to this use of cookies and data.
  • In Schweiz
  • Länderverzeichnis
  • Für 7 Tage
  • Wassertemperatur
  • Wetterkarte
  • Widgets
  • user-avatar
    Anmelden

    Stündliche Wetter Grenoble

    Heute, 30 Mai, Samstag

    Zeit Temperatur Niederschläge Wind Luftdruck Luftfeuchtigkeit
    00:00 +13°C° 0 mm 1 m/S 743 mmHg 90%
    01:00 +13°C° 0 mm 1 m/S 742 mmHg 91%
    02:00 +13°C° 0 mm 1 m/S 742 mmHg 92%
    03:00 +12°C° 0 mm 1 m/S 742 mmHg 93%
    04:00 +13°C° 0 mm 0 m/S 742 mmHg 89%
    05:00 +14°C° 0 mm 0 m/S 742 mmHg 84%
    06:00 +15°C° 0 mm 0 m/S 742 mmHg 80%
    07:00 +17°C° 0 mm 0 m/S 742 mmHg 72%
    08:00 +21°C° 0 mm 1 m/S 741 mmHg 65%
    09:00 +23°C° 0 mm 1 m/S 741 mmHg 57%
    10:00 +23°C° 0.1 mm 1 m/S 741 mmHg 56%
    11:00 +24°C° 0.1 mm 2 m/S 741 mmHg 54%
    12:00 +24°C° 0.1 mm 2 m/S 740 mmHg 53%
    13:00 +24°C° 0.2 mm 2 m/S 740 mmHg 56%
    14:00 +23°C° 0.2 mm 2 m/S 740 mmHg 59%
    15:00 +23°C° 0.2 mm 2 m/S 739 mmHg 63%
    16:00 +21°C° 0.3 mm 2 m/S 739 mmHg 69%
    17:00 +21°C° 0.3 mm 1 m/S 739 mmHg 75%
    18:00 +21°C° 0.3 mm 1 m/S 739 mmHg 81%
    19:00 +19°C° 0 mm 1 m/S 740 mmHg 84%
    20:00 +16°C° 0 mm 1 m/S 740 mmHg 87%
    21:00 +14°C° 0 mm 1 m/S 740 mmHg 90%
    22:00 +14°C° 0 mm 1 m/S 740 mmHg 90%
    23:00 +14°C° 0 mm 1 m/S 740 mmHg 90%

    Morgen, 31 Mai, Sonntag

    Zeit Temperatur Niederschläge Wind Luftdruck Luftfeuchtigkeit
    00:00 +13°C° 0 mm 1 m/S 740 mmHg 89%
    01:00 +13°C° 0 mm 1 m/S 740 mmHg 89%
    02:00 +12°C° 0 mm 1 m/S 740 mmHg 89%
    03:00 +11°C° 0 mm 0 m/S 740 mmHg 89%
    04:00 +12°C° 0 mm 0 m/S 740 mmHg 86%
    05:00 +14°C° 0 mm 0 m/S 740 mmHg 83%
    06:00 +15°C° 0 mm 0 m/S 740 mmHg 81%
    07:00 +17°C° 0 mm 0 m/S 740 mmHg 71%
    08:00 +21°C° 0 mm 1 m/S 740 mmHg 61%
    09:00 +24°C° 0 mm 1 m/S 740 mmHg 51%
    10:00 +24°C° 0 mm 1 m/S 740 mmHg 48%
    11:00 +25°C° 0 mm 2 m/S 740 mmHg 45%
    12:00 +26°C° 0 mm 2 m/S 740 mmHg 43%
    13:00 +26°C° 0 mm 2 m/S 740 mmHg 43%
    14:00 +26°C° 0 mm 2 m/S 740 mmHg 44%
    15:00 +26°C° 0 mm 2 m/S 740 mmHg 45%
    16:00 +25°C° 0.1 mm 2 m/S 740 mmHg 53%
    17:00 +23°C° 0.1 mm 1 m/S 740 mmHg 62%
    18:00 +22°C° 0.1 mm 1 m/S 740 mmHg 70%
    19:00 +20°C° 0 mm 1 m/S 740 mmHg 75%
    20:00 +18°C° 0 mm 1 m/S 740 mmHg 81%
    21:00 +15°C° 0 mm 1 m/S 741 mmHg 87%
    22:00 +15°C° 0 mm 1 m/S 741 mmHg 88%
    23:00 +15°C° 0 mm 1 m/S 741 mmHg 89%

    übermorgen, 1 Juni, Montag

    Zeit Temperatur Niederschläge Wind Luftdruck Luftfeuchtigkeit
    00:00 +14°C° 0 mm 1 m/S 741 mmHg 90%
    01:00 +14°C° 0 mm 1 m/S 741 mmHg 90%
    02:00 +14°C° 0 mm 1 m/S 741 mmHg 91%
    03:00 +14°C° 0 mm 1 m/S 741 mmHg 91%
    04:00 +15°C° 0 mm 1 m/S 741 mmHg 85%
    05:00 +15°C° 0 mm 0 m/S 741 mmHg 80%
    06:00 +17°C° 0 mm 0 m/S 741 mmHg 75%
    07:00 +21°C° 0 mm 1 m/S 741 mmHg 67%
    08:00 +23°C° 0 mm 1 m/S 741 mmHg 59%
    09:00 +25°C° 0 mm 1 m/S 741 mmHg 51%
    10:00 +26°C° 0.1 mm 1 m/S 741 mmHg 50%
    11:00 +27°C° 0.1 mm 1 m/S 741 mmHg 48%
    12:00 +27°C° 0.1 mm 2 m/S 741 mmHg 47%
    13:00 +27°C° 0.1 mm 2 m/S 741 mmHg 48%
    14:00 +27°C° 0.1 mm 2 m/S 741 mmHg 49%
    15:00 +27°C° 0.1 mm 2 m/S 741 mmHg 50%
    16:00 +26°C° 0.2 mm 1 m/S 741 mmHg 58%
    17:00 +25°C° 0.2 mm 1 m/S 741 mmHg 65%
    18:00 +24°C° 0.2 mm 1 m/S 741 mmHg 73%
    19:00 +22°C° 0 mm 1 m/S 741 mmHg 78%
    20:00 +20°C° 0 mm 1 m/S 741 mmHg 82%
    21:00 +18°C° 0 mm 1 m/S 742 mmHg 87%
    22:00 +18°C° 0 mm 1 m/S 742 mmHg 88%
    23:00 +16°C° 0 mm 1 m/S 742 mmHg 88%

    2 Juni, Dienstag

    Zeit Temperatur Niederschläge Wind Luftdruck Luftfeuchtigkeit
    00:00 +16°C° 0 mm 1 m/S 741 mmHg 89%
    01:00 +15°C° 0 mm 1 m/S 741 mmHg 89%
    02:00 +15°C° 0 mm 1 m/S 741 mmHg 89%
    03:00 +15°C° 0 mm 1 m/S 741 mmHg 89%
    04:00 +16°C° 0 mm 1 m/S 741 mmHg 86%
    05:00 +17°C° 0 mm 0 m/S 741 mmHg 82%
    06:00 +18°C° 0 mm 0 m/S 741 mmHg 78%
    07:00 +20°C° 0 mm 0 m/S 741 mmHg 70%
    08:00 +25°C° 0 mm 1 m/S 741 mmHg 61%
    09:00 +27°C° 0 mm 1 m/S 741 mmHg 53%
    10:00 +28°C° 0 mm 1 m/S 741 mmHg 49%
    11:00 +28°C° 0 mm 1 m/S 740 mmHg 45%
    12:00 +29°C° 0 mm 2 m/S 740 mmHg 41%
    13:00 +29°C° 0 mm 2 m/S 739 mmHg 42%
    14:00 +29°C° 0 mm 2 m/S 739 mmHg 43%
    15:00 +29°C° 0 mm 2 m/S 739 mmHg 43%
    16:00 +27°C° 0.1 mm 1 m/S 738 mmHg 53%
    17:00 +26°C° 0.1 mm 1 m/S 738 mmHg 62%
    18:00 +25°C° 0.1 mm 1 m/S 738 mmHg 72%
    19:00 +23°C° 0.1 mm 1 m/S 738 mmHg 76%
    20:00 +21°C° 0.1 mm 1 m/S 738 mmHg 81%
    21:00 +19°C° 0.1 mm 1 m/S 738 mmHg 85%
    22:00 +19°C° 0.1 mm 1 m/S 737 mmHg 87%
    23:00 +19°C° 0.1 mm 1 m/S 737 mmHg 88%

    3 Juni, Mittwoch

    Zeit Temperatur Niederschläge Wind Luftdruck Luftfeuchtigkeit
    00:00 +18°C° 0.1 mm 1 m/S 737 mmHg 90%
    01:00 +18°C° 0.7 mm 1 m/S 736 mmHg 91%
    02:00 +18°C° 0.7 mm 1 m/S 736 mmHg 92%
    03:00 +16°C° 0.7 mm 1 m/S 736 mmHg 93%
    04:00 +18°C° 0.8 mm 1 m/S 735 mmHg 92%
    05:00 +19°C° 0.8 mm 1 m/S 735 mmHg 92%
    06:00 +20°C° 0.8 mm 1 m/S 735 mmHg 92%
    07:00 +21°C° 0.5 mm 1 m/S 735 mmHg 88%
    08:00 +22°C° 0.5 mm 1 m/S 734 mmHg 85%
    09:00 +22°C° 0.5 mm 1 m/S 734 mmHg 82%
    10:00 +23°C° 0.6 mm 2 m/S 734 mmHg 79%
    11:00 +23°C° 0.6 mm 2 m/S 734 mmHg 76%
    12:00 +24°C° 0.6 mm 3 m/S 733 mmHg 74%
    13:00 +24°C° 0.6 mm 3 m/S 733 mmHg 75%
    14:00 +22°C° 0.6 mm 3 m/S 733 mmHg 76%
    15:00 +22°C° 0.6 mm 3 m/S 732 mmHg 77%
    16:00 +21°C° 0.9 mm 3 m/S 732 mmHg 83%
    17:00 +20°C° 0.9 mm 2 m/S 732 mmHg 89%
    18:00 +19°C° 0.9 mm 1 m/S 732 mmHg 95%
    19:00 +19°C° 0.6 mm 1 m/S 732 mmHg 96%
    20:00 +19°C° 0.6 mm 1 m/S 733 mmHg 96%
    21:00 +18°C° 0.6 mm 2 m/S 733 mmHg 96%
    22:00 +19°C° 0.9 mm 1 m/S 732 mmHg 96%
    23:00 +19°C° 0.9 mm 1 m/S 732 mmHg 96%

    4 Juni, Donnerstag

    Zeit Temperatur Niederschläge Wind Luftdruck Luftfeuchtigkeit
    00:00 +18°C° 0.9 mm 1 m/S 732 mmHg 96%
    01:00 +18°C° 1.1 mm 1 m/S 731 mmHg 96%
    02:00 +18°C° 1.1 mm 1 m/S 731 mmHg 96%
    03:00 +18°C° 1.1 mm 1 m/S 730 mmHg 97%
    04:00 +18°C° 0.7 mm 1 m/S 730 mmHg 96%
    05:00 +18°C° 0.7 mm 1 m/S 730 mmHg 96%
    06:00 +18°C° 0.7 mm 1 m/S 730 mmHg 96%
    07:00 +19°C° 1.9 mm 1 m/S 730 mmHg 96%
    08:00 +19°C° 1.9 mm 1 m/S 730 mmHg 96%
    09:00 +19°C° 1.9 mm 1 m/S 730 mmHg 96%
    10:00 +19°C° 3.9 mm 1 m/S 730 mmHg 96%
    11:00 +19°C° 3.9 mm 1 m/S 730 mmHg 96%
    12:00 +19°C° 3.9 mm 1 m/S 729 mmHg 96%
    13:00 +19°C° 4.5 mm 1 m/S 729 mmHg 97%
    14:00 +18°C° 4.5 mm 1 m/S 729 mmHg 97%
    15:00 +18°C° 4.5 mm 1 m/S 729 mmHg 98%
    16:00 +18°C° 3.2 mm 1 m/S 728 mmHg 98%
    17:00 +18°C° 3.2 mm 1 m/S 728 mmHg 98%
    18:00 +18°C° 3.2 mm 1 m/S 728 mmHg 98%
    19:00 +16°C° 1.4 mm 1 m/S 729 mmHg 97%
    20:00 +16°C° 1.4 mm 1 m/S 729 mmHg 97%
    21:00 +16°C° 1.4 mm 1 m/S 729 mmHg 96%
    22:00 +16°C° 0.7 mm 1 m/S 729 mmHg 96%
    23:00 +16°C° 0.7 mm 1 m/S 729 mmHg 96%
    Mehr zeigen